MDT,Max TemperatureF,Mean TemperatureF,Min TemperatureF,Max Dew PointF,MeanDew PointF,Min DewpointF,Max Humidity, Mean Humidity, Min Humidity, Max Sea Level PressureIn, Mean Sea Level PressureIn, Min Sea Level PressureIn, Max VisibilityMiles, Mean VisibilityMiles, Min VisibilityMiles, Max Wind SpeedMPH, Mean Wind SpeedMPH, Max Gust SpeedMPH,PrecipitationIn, CloudCover, Events, WindDirDegrees
2013-3-1,52,42,32,32,30,26,65,55,44,30.12,30.09,30.06,10,10,10,46,29,56,0.00,0,,253
2013-3-2,57,48,38,31,27,19,70,47,23,30.09,29.97,29.78,10,10,10,39,20,44,0.00,0,,247
2013-3-3,42,31,20,31,20,11,96,64,32,30.19,29.83,29.60,10,4,0,51,29,63,0.01,6,Fog-Snow,316
2013-3-4,27,21,14,18,15,11,88,74,60,30.44,30.29,30.09,10,7,2,26,10,29,T,7,Snow,349
2013-3-5,26,14,2,18,11,-1,95,79,62,30.34,30.20,30.02,10,9,0,14,6,17,0.00,4,Fog,112
2013-3-6,23,19,15,19,17,15,100,92,84,30.10,29.87,29.70,10,7,0,13,6,15,0.01,8,Fog-Snow,127
2013-3-7,30,21,12,21,17,10,92,80,68,30.17,30.01,29.78,10,7,2,10,4,13,T,4,Snow,349
2013-3-8,35,21,7,25,16,3,96,80,64,30.15,30.02,29.89,10,4,0,8,4,10,0.00,3,Fog,133
2013-3-9,42,32,21,20,18,16,81,59,36,30.27,30.18,30.06,10,10,10,18,9,21,0.00,0,,312
2013-3-10,47,36,25,25,22,19,81,59,37,30.21,30.09,29.97,10,10,10,39,23,46,0.00,0,,256
2013-3-11,35,27,19,25,20,16,92,74,56,30.38,30.21,30.02,10,6,1,23,8,28,T,8,Snow,341
2013-3-12,44,31,18,34,25,16,92,77,62,30.35,30.11,29.89,10,10,10,33,15,40,0.00,3,,183
2013-3-13,57,48,38,34,32,30,76,60,43,30.06,29.97,29.88,10,10,10,37,20,45,0.00,0,,250
2013-3-14,52,36,20,34,26,18,100,75,50,30.15,30.03,29.89,10,7,0,24,11,26,0.00,2,Fog,17
2013-3-15,56,38,19,29,23,17,96,63,30,30.18,29.96,29.81,10,6,0,32,14,40,0.00,2,Fog,20
2013-3-16,38,29,19,27,21,16,100,82,64,30.17,29.92,29.54,10,7,1,16,8,20,T,7,Snow,129
2013-3-17,26,17,7,23,13,3,100,82,64,30.11,29.69,29.46,10,4,0,33,16,39,T,7,Fog-Snow,332
2013-3-18,34,21,7,21,15,5,92,72,51,30.13,29.95,29.84,10,8,2,37,15,41,0.00,4,,296
2013-3-19,40,24,8,23,11,6,92,60,27,30.31,30.19,30.00,10,8,2,12,6,15,0.00,3,,248
2013-3-20,59,42,24,35,22,10,85,60,35,30.00,29.65,29.47,10,10,10,40,14,49,T,4,,193
2013-3-21,41,32,23,25,18,11,88,61,34,29.95,29.70,29.49,10,10,10,47,24,58,T,4,,265
2013-3-22,26,18,9,24,15,6,92,74,55,30.35,30.06,29.86,10,6,1,24,15,29,T,6,Snow,349
2013-3-23,32,17,2,13,7,-2,88,62,36,30.43,30.38,30.34,10,10,10,13,4,23,0.00,1,,346
2013-3-24,38,23,8,15,8,4,84,56,27,30.42,30.35,30.27,10,10,10,14,5,18,0.00,0,,220
2013-3-25,45,29,12,15,10,7,80,51,22,30.26,30.15,30.06,10,10,10,14,3,20,0.00,0,,205
2013-3-26,51,33,14,23,15,11,80,50,20,30.07,30.01,29.96,10,10,10,14,5,17,0.00,0,,278
2013-3-27,57,38,18,27,20,14,84,52,19,30.06,30.01,29.96,10,10,10,15,4,20,0.00,1,,283
2013-3-28,59,41,23,33,27,19,88,57,25,30.08,30.04,29.99,10,10,10,21,10,25,0.00,4,,245
2013-3-29,59,45,30,32,27,20,85,55,24,30.12,30.06,30.01,10,10,10,23,14,30,0.00,3,,282
2013-3-30,59,46,32,28,24,19,75,50,24,30.21,30.13,30.01,10,10,10,20,12,25,0.00,0,,278
2013-3-31,53,40,27,27,24,21,70,51,32,30.22,30.12,29.98,10,10,10,26,11,30,0.00,1,,342